Location: Kaltenbach
(49.2000°N, 7.7500°E)
Time: 22:47:25
(UTC+00:00)

Cosmos 1356 Rocket - Pass Details

Date: 24 January 2020
Orbit: 543 x 598 km, 81.2° (Epoch: 23 February)

Event Time Altitude Azimuth Distance (km) Brightness Sun altitude
Rises 17:48:01 0° 352° (N) 2,731 6.8 -15.5°
Reaches altitude 10° 17:50:14 10° 357° (N) 1,838 5.9 -15.9°
Maximum altitude 17:54:11 52° 74° (ENE) 700 3.4 -16.5°
Drops below altitude 10° 17:58:11 10° 152° (SSE) 1,850 5.8 -17.2°
Sets 18:00:24 0° 157° (SSE) 2,750 6.8 -17.5°
